Location: Ehingen
(48.2869°N, 9.7112°E)
Time: 17:02:26
(UTC+01:00)

ISS - Pass Details

Date: 28 March 2017
Orbit: 399 x 409 km, 51.6° (Epoch: 25 March)

Event Time Altitude Azimuth Distance (km) Brightness Sun altitude
Rises 22:32:04 0° 253° (WSW) 2,311 0.4 -26.0°
Reaches altitude 10° 22:34:09 10° 256° (WSW) 1,456 -0.6 -26.3°
Enters shadow 22:34:28 12° 256° (WSW) 1,328 -0.8 -26.3°
